[[{"header":{"parameterUnit":"m.s-1","parameterCategory":1,"la1":30.2991,"la2":30.254,"lo1":-89.0895,"lo2":-89.0444,"dy":0.0017,"dx":0.0017,"nx":28,"ny":28,"refTime":"2025-12-12T03:00:00:Z","depth":0,"parameterNumber":2,"parameterNumberName":"U-component_of_WINDS"},"data":[0,0,0,0,0,0,0,0,0,0,0,0,0,0,0,0,0,0,0,0,0,0,0,0,0,0,0,0,0,0,0,0,0,0,0,0,0,0,0,0,0,0,0,0,0,0,0,0,0,0,0,0,0,0,0,0,0,0,-0.7454,-0.7454,0,-0.7484,-0.7484,-0.7485,-0.7476,-0.7476,-0.7475,-0.7474,-0.751,-0.7511,-0.7513,0,0,0,0,0,0,0,0,0,0,0,0,0,-0.7396,-0.7397,-0.7454,-0.7454,-0.7455,-0.7484,-0.7484,-0.7485,-0.7476,-0.7476,-0.7475,-0.7474,-0.7509,-0.7511,-0.7513,0,0,0,0,0,0,0,0,0,0,0,0,0,-0.7423,-0.7397,-0.7454,-0.7454,-0.7454,-0.7484,-0.7484,-0.7485,-0.7477,-0.7476,-0.7475,-0.7474,-0.7509,-0.7511,-0.7513,-0.7546,0,0,-0.752,-0.7521,0,0,0,0,0,0,0,0,-0.7421,-0.7425,-0.7454,-0.7454,-0.7454,-0.7475,-0.7477,-0.7505,-0.7477,-0.7468,-0.7474,-0.7473,-0.7499,-0.7502,-0.751,-0.7548,-0.7549,-0.752,-0.7522,-0.7523,-0.7523,0,0,0,0,0,0,0,-0.742,-0.7424,-0.7466,-0.7454,-0.7455,-0.7455,-0.7457,-0.7482,-0.7489,-0.7469,-0.7468,-0.7472,-0.75,-0.7508,-0.7511,-0.755,-0.752,-0.7522,-0.7524,-0.7525,-0.7617,-0.7618,0,0,0,0,0,0,-0.7417,-0.7422,-0.7465,-0.7467,-0.7435,-0.7456,-0.7459,-0.747,-0.7489,-0.749,-0.7473,-0.7471,-0.7505,-0.7508,-0.7512,-0.7552,-0.7523,-0.7525,-0.7526,-0.7616,-0.7618,-0.7619,0,0,0,0,0,0,-0.7415,-0.742,-0.7464,-0.7444,-0.745,-0.7458,-0.747,-0.7471,-0.7479,-0.7491,-0.7493,-0.748,-0.7504,-0.7509,-0.7538,-0.7554,-0.7526,-0.7528,-0.7615,-0.7617,-0.7618,-0.7633,0,0,0,0,0,0,-0.7414,-0.742,-0.7431,-0.7445,-0.7451,-0.7487,-0.7471,-0.7472,-0.7482,-0.7481,-0.7498,-0.75,-0.7504,-0.7534,-0.754,-0.7556,-0.753,-0.7614,-0.7616,-0.7618,-0.7631,-0.7635,-0.7638,0,0,0,0,0,-0.7412,-0.7435,-0.7432,-0.7437,-0.7464,-0.7488,-0.7492,-0.7494,-0.7484,-0.7496,-0.7504,-0.75,-0.7551,-0.7537,-0.7544,-0.7561,-0.7613,-0.7615,-0.7618,-0.7629,-0.7634,-0.7638,0,0,0,0,0,0,-0.7424,-0.7436,-0.7433,-0.7461,-0.7473,-0.7486,-0.7501,-0.7498,-0.7515,-0.7513,-0.7517,-0.7521,-0.755,-0.7559,-0.7543,-0.7594,-0.7581,-0.7585,-0.7587,-0.7592,-0.7595,-0.7593,-0.7532,0,0,0,0,0,-0.7429,-0.7445,-0.7456,-0.748,-0.7486,-0.7493,-0.7503,-0.7504,-0.7517,-0.7523,-0.7533,-0.7548,-0.7568,-0.758,-0.7599,-0.7632,-0.7637,-0.7648,-0.7651,-0.7654,-0.7657,-0.7677,-0.7682,-0.7627,-0.7627,-0.7627,0,0,-0.7442,-0.7451,-0.7461,-0.7483,-0.7492,-0.7511,-0.7497,-0.7517,-0.7531,-0.7526,-0.7553,-0.7562,-0.7579,-0.761,-0.7625,-0.7618,-0.7674,-0.7657,-0.7659,-0.7661,-0.768,-0.7685,-0.769,-0.7629,-0.7628,-0.7628,0,0,-0.7473,-0.7481,-0.7502,-0.7512,-0.7526,-0.7531,-0.7536,-0.755,-0.7555,-0.7582,-0.7579,-0.7598,-0.7631,-0.7643,-0.7654,-0.7693,-0.769,-0.7699,-0.7717,-0.7737,-0.7741,-0.7745,-0.776,-0.7765,-0.7702,-0.7702,-0.7703,0,-0.7487,-0.7512,-0.7513,-0.7533,-0.7544,-0.7539,-0.7562,-0.7572,-0.7593,-0.7601,-0.7593,-0.7636,-0.7647,-0.7682,-0.7692,-0.77,-0.7708,-0.7697,-0.774,-0.7744,-0.7748,-0.7762,-0.7767,-0.7703,-0.7703,-0.7703,-0.7703,0,-0.7529,-0.7548,-0.7563,-0.7581,-0.7594,-0.7615,-0.7621,-0.7634,-0.7634,-0.764,-0.767,-0.7683,-0.7705,-0.7714,-0.7714,-0.7749,-0.7745,-0.7739,-0.7725,-0.7754,-0.7767,-0.7773,-0.7705,-0.7705,-0.7704,-0.7704,0,0,-0.7568,-0.7587,-0.7593,-0.7602,-0.7618,-0.7633,-0.7656,-0.7676,-0.7687,-0.7703,-0.7722,-0.7752,-0.7746,-0.7759,-0.7761,-0.7778,-0.7809,-0.777,-0.7771,-0.7777,-0.785,-0.7855,-0.7861,-0.7808,-0.7809,-0.781,-0.7849,0,-0.7601,-0.7637,-0.764,-0.7674,-0.7692,-0.7689,-0.7709,-0.7722,-0.7729,-0.7747,-0.7756,-0.7776,-0.7767,-0.7775,-0.7792,-0.7802,-0.7824,-0.7799,-0.7828,-0.7829,-0.7823,-0.7867,-0.7872,-0.7908,-0.7854,-0.7855,-0.7856,0,-0.7644,-0.7659,-0.7694,-0.771,-0.7717,-0.7734,-0.7754,-0.777,-0.7787,-0.7791,-0.7806,-0.7806,-0.7832,-0.7817,-0.7853,-0.7836,-0.7849,-0.7856,-0.7858,-0.786,-0.7844,-0.7872,-0.792,-0.7925,-0.7864,-0.7863,-0.7862,0,-0.7669,-0.7699,-0.7724,-0.7732,-0.775,-0.7762,-0.7771,-0.7786,-0.7799,-0.7817,-0.7825,-0.7846,-0.7858,-0.7876,-0.7883,-0.7872,-0.792,-0.7906,-0.7925,-0.7925,-0.7935,-0.7934,-0.7985,-0.7943,-0.7943,-0.7943,-0.7943,0,-0.7706,-0.7728,-0.7735,-0.7751,-0.7776,-0.778,-0.7806,-0.7814,-0.7828,-0.7847,-0.7847,-0.7865,-0.7873,-0.7894,-0.79,-0.793,-0.7935,-0.7941,-0.7942,-0.794,-0.794,-0.7948,-0.7946,-0.7944,-0.7944,-0.7944,-0.7943,0,-0.7737,-0.7743,-0.7771,-0.7786,-0.779,-0.7808,-0.7822,-0.7839,-0.7846,-0.787,-0.7876,-0.7888,-0.7912,-0.7921,-0.7951,-0.7956,-0.799,-0.7989,-0.7984,-0.7984,-0.8003,-0.8001,-0.8061,-0.807,-0.8022,-0.8022,-0.8023,0,-0.776,-0.7777,-0.7794,-0.7805,-0.7814,-0.7833,-0.7845,-0.7851,-0.7865,-0.7885,-0.79,-0.7923,-0.7942,-0.7981,-0.7994,-0.8017,-0.8018,-0.8037,-0.8021,-0.8019,-0.8018,-0.8017,-0.8019,-0.804,-0.8041,-0.8041,-0.8041,0,-0.78,-0.7802,-0.7819,-0.7838,-0.7853,-0.7868,-0.7883,-0.7893,-0.7902,-0.7917,-0.7941,-0.7956,-0.7986,-0.801,-0.8034,-0.8046,-0.8046,-0.8046,-0.8052,-0.805,-0.8046,-0.8049,-0.7992,-0.8045,-0.8044,-0.8044,-0.8044,-0.8044,-0.7828,-0.7843,-0.7857,-0.7877,-0.7889,-0.7903,-0.7919,-0.7929,-0.7948,-0.7971,-0.7974,-0.8,-0.8019,-0.8051,-0.8064,-0.8086,-0.8081,-0.8089,-0.8091,-0.8093,-0.8094,-0.8043,-0.809,-0.809,-0.809,-0.809,-0.809,0,-0.7868,-0.7877,-0.7895,-0.7916,-0.7932,-0.7929,-0.7946,-0.796,-0.7982,-0.7999,-0.8017,-0.8046,-0.807,-0.8085,-0.8109,-0.8124,-0.8125,-0.813,-0.8129,-0.8132,-0.8097,-0.8089,-0.8129,-0.8129,-0.8129,-0.8129,-0.8129,-0.8129,-0.7891,-0.7916,-0.7921,-0.7953,-0.7963,-0.7986,-0.7997,-0.8011,-0.8024,-0.8055,-0.8074,-0.8083,-0.81,-0.8126,-0.8149,-0.8153,-0.8162,-0.8168,-0.8172,-0.8139,-0.8135,-0.8131,-0.8124,-0.817,-0.817,-0.8206,-0.8206,-0.8206]},{"header":{"parameterUnit":"m.s-1","parameterCategory":1,"la1":30.2991,"la2":30.254,"lo1":-89.0895,"lo2":-89.0444,"dy":0.0017,"dx":0.0017,"nx":28,"ny":28,"refTime":"2025-12-12T03:00:00:Z","depth":0,"parameterNumber":3,"parameterNumberName":"V-component_of_WINDS"},"data":[0,0,0,0,0,0,0,0,0,0,0,0,0,0,0,0,0,0,0,0,0,0,0,0,0,0,0,0,0,0,0,0,0,0,0,0,0,0,0,0,0,0,0,0,0,0,0,0,0,0,0,0,0,0,0,0,0,0,-0.2203,-0.2204,0,-0.2314,-0.2315,-0.2316,-0.2305,-0.2303,-0.2301,-0.2299,-0.2414,-0.2419,-0.2423,0,0,0,0,0,0,0,0,0,0,0,0,0,-0.1982,-0.1986,-0.2203,-0.2205,-0.2206,-0.2314,-0.2315,-0.2317,-0.2305,-0.2303,-0.2301,-0.2299,-0.2413,-0.2418,-0.2424,0,0,0,0,0,0,0,0,0,0,0,0,0,-0.2084,-0.1988,-0.2203,-0.2213,-0.2215,-0.2313,-0.2315,-0.2317,-0.2305,-0.2303,-0.23,-0.2298,-0.2411,-0.2418,-0.2424,-0.252,0,0,-0.2446,-0.2449,0,0,0,0,0,0,0,0,-0.2078,-0.2092,-0.221,-0.2212,-0.2215,-0.2293,-0.2279,-0.2385,-0.2306,-0.2271,-0.2299,-0.2296,-0.2376,-0.2386,-0.2412,-0.2526,-0.2531,-0.2447,-0.2451,-0.2454,-0.2456,0,0,0,0,0,0,0,-0.2071,-0.2087,-0.2247,-0.2212,-0.2215,-0.2212,-0.2224,-0.2299,-0.2337,-0.2274,-0.2273,-0.2287,-0.2377,-0.2405,-0.2415,-0.2532,-0.2446,-0.2453,-0.2457,-0.246,-0.2731,-0.2734,0,0,0,0,0,0,-0.2062,-0.2082,-0.2243,-0.225,-0.2139,-0.2218,-0.2231,-0.227,-0.2336,-0.2344,-0.2289,-0.2286,-0.2395,-0.2407,-0.2419,-0.2536,-0.2454,-0.246,-0.2464,-0.2728,-0.2731,-0.2735,0,0,0,0,0,0,-0.2057,-0.2076,-0.2239,-0.2166,-0.2186,-0.2225,-0.2269,-0.2274,-0.2303,-0.2347,-0.2354,-0.2311,-0.2393,-0.2409,-0.2495,-0.254,-0.2464,-0.247,-0.2724,-0.2729,-0.2733,-0.2771,0,0,0,0,0,0,-0.2051,-0.2075,-0.2111,-0.2167,-0.219,-0.2314,-0.2272,-0.2278,-0.2315,-0.2312,-0.237,-0.2377,-0.2392,-0.2485,-0.2502,-0.2548,-0.2475,-0.272,-0.2726,-0.2732,-0.2766,-0.2776,-0.2785,0,0,0,0,0,-0.2043,-0.2118,-0.2113,-0.2133,-0.2237,-0.2316,-0.233,-0.2345,-0.2318,-0.2356,-0.2384,-0.2375,-0.2532,-0.2494,-0.2513,-0.2562,-0.2718,-0.2725,-0.2731,-0.2762,-0.2774,-0.2785,0,0,0,0,0,0,-0.2067,-0.2125,-0.2121,-0.2216,-0.2261,-0.2314,-0.2362,-0.2358,-0.2412,-0.2407,-0.2424,-0.2437,-0.2525,-0.2552,-0.2508,-0.2659,-0.2621,-0.2632,-0.2638,-0.265,-0.2659,-0.2652,-0.2481,0,0,0,0,0,-0.2083,-0.2142,-0.219,-0.2269,-0.2292,-0.2323,-0.2358,-0.2366,-0.2414,-0.2433,-0.2468,-0.2515,-0.2574,-0.2614,-0.2671,-0.2769,-0.2782,-0.2813,-0.2822,-0.283,-0.2839,-0.2894,-0.2908,-0.2757,-0.2757,-0.2756,0,0,-0.2118,-0.2157,-0.2193,-0.2275,-0.2311,-0.2373,-0.2339,-0.2405,-0.2451,-0.2443,-0.2527,-0.2554,-0.2608,-0.27,-0.2743,-0.2726,-0.2884,-0.2838,-0.2844,-0.285,-0.2902,-0.2917,-0.2929,-0.2761,-0.276,-0.276,0,0,-0.2213,-0.2248,-0.2318,-0.2354,-0.2409,-0.2429,-0.2446,-0.2499,-0.2517,-0.2601,-0.2596,-0.2651,-0.2753,-0.2792,-0.2825,-0.2933,-0.2927,-0.2951,-0.3002,-0.3055,-0.3067,-0.3077,-0.3117,-0.3131,-0.2961,-0.2961,-0.2961,0,-0.2249,-0.2341,-0.2354,-0.2422,-0.2458,-0.2453,-0.2524,-0.2559,-0.263,-0.2655,-0.2634,-0.2763,-0.2799,-0.2901,-0.2927,-0.2954,-0.2974,-0.2946,-0.3064,-0.3075,-0.3085,-0.3123,-0.3138,-0.2963,-0.2963,-0.2963,-0.2963,0,-0.2383,-0.2447,-0.2497,-0.2565,-0.2607,-0.2676,-0.27,-0.2741,-0.2745,-0.2767,-0.2853,-0.2896,-0.2962,-0.2986,-0.2991,-0.3089,-0.3077,-0.306,-0.3023,-0.3102,-0.3138,-0.3152,-0.2967,-0.2966,-0.2965,-0.2965,0,0,-0.2497,-0.2571,-0.259,-0.2621,-0.2681,-0.273,-0.2799,-0.2863,-0.2898,-0.2947,-0.3005,-0.3092,-0.3076,-0.3114,-0.3122,-0.3169,-0.3253,-0.3146,-0.3148,-0.3166,-0.3365,-0.3378,-0.3395,-0.3249,-0.3252,-0.3254,-0.3361,0,-0.2598,-0.2719,-0.2734,-0.2842,-0.2901,-0.2897,-0.2957,-0.3,-0.3022,-0.3076,-0.3101,-0.3162,-0.3137,-0.3159,-0.3205,-0.3233,-0.3294,-0.3225,-0.3304,-0.3307,-0.3292,-0.3414,-0.3428,-0.3527,-0.3375,-0.3377,-0.3379,0,-0.2733,-0.2785,-0.2899,-0.2951,-0.2976,-0.303,-0.309,-0.3141,-0.319,-0.3203,-0.3245,-0.3248,-0.3319,-0.3278,-0.3377,-0.333,-0.3363,-0.3381,-0.3386,-0.3395,-0.3349,-0.3427,-0.3559,-0.3574,-0.3401,-0.3399,-0.3398,0,-0.2806,-0.2905,-0.2986,-0.3012,-0.3074,-0.3112,-0.314,-0.3186,-0.3224,-0.3276,-0.3301,-0.3361,-0.3394,-0.3441,-0.346,-0.3428,-0.3558,-0.3518,-0.3572,-0.3571,-0.36,-0.3599,-0.3741,-0.3619,-0.3619,-0.3619,-0.3618,0,-0.2918,-0.2988,-0.3019,-0.307,-0.3148,-0.3164,-0.3241,-0.3267,-0.3309,-0.3364,-0.3363,-0.3415,-0.3437,-0.3492,-0.3507,-0.3587,-0.3602,-0.3615,-0.3618,-0.3616,-0.3614,-0.3639,-0.3633,-0.3623,-0.3622,-0.3621,-0.362,0,-0.3013,-0.3037,-0.3125,-0.3177,-0.3191,-0.3247,-0.3291,-0.334,-0.3361,-0.3431,-0.3448,-0.3482,-0.3547,-0.357,-0.365,-0.366,-0.3753,-0.375,-0.3737,-0.3738,-0.379,-0.3785,-0.3954,-0.3977,-0.3839,-0.384,-0.3841,0,-0.3084,-0.3138,-0.3195,-0.3232,-0.3261,-0.332,-0.3359,-0.3376,-0.3416,-0.3476,-0.3518,-0.3582,-0.3635,-0.3739,-0.3771,-0.3832,-0.3831,-0.3886,-0.384,-0.3836,-0.3834,-0.3831,-0.3837,-0.3895,-0.3896,-0.3898,-0.3899,0,-0.3208,-0.3217,-0.3272,-0.3332,-0.3377,-0.3425,-0.3472,-0.3502,-0.3526,-0.3571,-0.3638,-0.3679,-0.3759,-0.3824,-0.3886,-0.3915,-0.3911,-0.3912,-0.3928,-0.3927,-0.3917,-0.3924,-0.3761,-0.3909,-0.3908,-0.3907,-0.3906,-0.3906,-0.3294,-0.3342,-0.3389,-0.3451,-0.3488,-0.3531,-0.3579,-0.3607,-0.3662,-0.373,-0.3736,-0.3808,-0.3855,-0.3938,-0.397,-0.4026,-0.4012,-0.4034,-0.404,-0.4046,-0.405,-0.3907,-0.4038,-0.4037,-0.4037,-0.4037,-0.4037,0,-0.3418,-0.3448,-0.3505,-0.357,-0.3619,-0.361,-0.3661,-0.3702,-0.3766,-0.381,-0.3862,-0.3939,-0.4001,-0.4037,-0.41,-0.4139,-0.4139,-0.4155,-0.4153,-0.416,-0.4059,-0.404,-0.4154,-0.4154,-0.4154,-0.4153,-0.4153,-0.4153,-0.3489,-0.357,-0.3584,-0.3684,-0.3713,-0.3784,-0.3814,-0.3854,-0.3889,-0.3975,-0.4027,-0.405,-0.4091,-0.4157,-0.4214,-0.4223,-0.4247,-0.4264,-0.4272,-0.4178,-0.4166,-0.4155,-0.4137,-0.4269,-0.4269,-0.4368,-0.4369,-0.437]}]]